FW9882 Weather Reports


time (UTC)temp
F
wind
direction
speed
knots
gust
knots
rain 1hr
in
rain 24hr
in
rain mn
in
humidity
%
barometer
mb
20260505040653 48 278 1.7 2.6 0.00 0.16 0.00 73 1004.7
20260505040153 48 302 1.7 5.2 0.00 0.17 0.00 73 1004.7
20260505030654 48 307 2.6 4.3 0.10 0.20 0.00 71 1004.0
20260505030154 48 255 2.6 6.1 0.10 1.64 0.00 71 1003.7
20260505020154 49 287 0.9 6.1 0.00 1.58 0.10 69 1003.0
20260505010154 51 291 0.9 6.1 0.00 1.63 0.10 67 1002.0
20260505000654 51 319 1.7 2.6 0.00 1.76 0.10 67 1001.4
20260504230654 52 262 6.1 7.8 0.00 1.88 0.10 62 1000.7
20260504230155 53 270 4.3 5.2 0.00 1.89 0.10 63 1000.3
20260504220654 54 250 3.5 5.2 0.00 1.98 0.10 57 999.7
20260504220154 54 280 2.6 6.1 0.00 1.99 0.10 57 999.7
20260504210154 57 323 7.0 10.4 0.00 2.10 0.10 44 999.3
20260504200654 58 253 4.3 5.2 0.00 2.19 0.10 37 999.0
20260504190655 62 269 6.1 11.3 0.00 2.32 0.10 28 998.3
20260504180156 59 265 6.1 10.4 0.00 2.66 0.10 31 998.3
20260504170656 57 268 5.2 6.1 0.00 2.87 0.10 35 998.6
20260504170155 57 279 3.5 11.3 0.00 2.88 0.10 35 998.6
20260504160156 54 67 1.7 8.7 0.00 2.94 0.10 44 998.6
20260504150656 52 297 5.2 7.8 0.00 2.94 0.10 52 999.0
20260504150156 51 260 1.7 10.4 0.00 2.94 0.10 53 998.6
20260504140656 49 275 2.6 4.3 0.00 2.95 0.10 64 998.0
20260504140156 49 285 2.6 10.4 0.00 2.96 0.10 67 998.0
20260504130656 43 320 2.6 4.3 0.00 2.98 0.10 79 997.6
20260504120156 42 339 1.7 12.2 0.00 2.98 0.10 82 996.3
20260504110656 41 275 4.3 5.2 0.00 2.98 0.10 85 995.9
20260504110156 41 278 2.6 7.8 0.00 2.98 0.10 85 995.9
20260504100156 40 284 4.3 6.1 0.00 2.98 0.10 88 994.9
20260504080156 39 307 4.3 8.7 0.01 2.98 0.10 93 992.9
20260504070157 37 294 1.7 6.1 0.02 2.97 0.09 93 991.9
20260504060157 36 284 4.3 11.3 0.02 2.95 0.07 93 991.2
20260504050657 34 281 1.7 6.1 0.01 2.93 0.05 94 990.5
20260504050157 34 317 2.6 7.8 0.01 2.93 0.05 94 990.5